Location: Newark
(43.6583°N, 1.6617°E)
Time: 20:20:15
(UTC+00:00)

Vanguard 1 Rocket - Pass Details

Date: 19 August 2019
Orbit: 650 x 4226 km, 34.3° (Epoch: 17 October)

Event Time Altitude Azimuth Distance (km) Brightness Sun altitude
Rises 08:44:06 0° 267° (W) 4,452 10.5 38.5°
Reaches altitude 10° 08:47:13 10° 254° (WSW) 3,878 10.3 39.0°
Maximum altitude 08:55:32 26° 204° (SSW) 3,767 10.8 40.4°
Drops below altitude 10° 09:08:39 10° 157° (SSE) 6,267 12.4 42.6°
Sets 09:15:53 0° 147° (SSE) 7,835 12.8 43.7°
